COSMOS 2221

Last updated on Wed Jul 02 2025 00:02:14 GMT+0000 (Coordinated Universal Time)

1 22236U 92080A 25182.39875158 .00001421 00000+0 12769-3 0 9993 2 22236 82.5044 159.4801 0013524 322.3715 37.6559 14.94925961743230
UTC large
Height (km)
Speed (km/s)
/
Latitude / Longitude
Inclination (degrees)
Orbital Period (minutes)
Azimuth
Elevation
Range (km)
Doppler Factor

Next 0 passes for location: London (51.5072 / 0.1276)

Sorry there are no passes over London.